• In United Kingdom
  • List of Countries
  • For 7 days
  • Water Temperature
  • Satellite Maps
  • Weather Map
  • Weather Widgets
  • user-avatar
    Login

    Hourly Weather Hotylevka

    Today, 18 October, Thursday

    Time Temperature Precipitation Wind Pressure Humidity
    00:00 +12°C° 0 mm 2 mps 750 mmHg 86%
    01:00 +12°C° 0 mm 2 mps 750 mmHg 87%
    02:00 +11°C° 0 mm 1 mps 750 mmHg 87%
    03:00 +11°C° 0 mm 1 mps 750 mmHg 88%
    04:00 +10°C° 0 mm 2 mps 750 mmHg 88%
    05:00 +9°C° 0 mm 2 mps 749 mmHg 89%
    06:00 +10°C° 0 mm 2 mps 749 mmHg 88%
    07:00 +10°C° 0 mm 2 mps 749 mmHg 87%
    08:00 +12°C° 0 mm 2 mps 749 mmHg 85%
    09:00 +14°C° 0 mm 2 mps 749 mmHg 79%
    10:00 +16°C° 0 mm 2 mps 749 mmHg 74%
    11:00 +17°C° 0 mm 2 mps 749 mmHg 68%
    12:00 +18°C° 0 mm 2 mps 748 mmHg 66%
    13:00 +19°C° 0 mm 3 mps 748 mmHg 65%
    14:00 +19°C° 0 mm 3 mps 748 mmHg 63%
    15:00 +18°C° 0 mm 3 mps 747 mmHg 69%
    16:00 +17°C° 0 mm 2 mps 747 mmHg 75%
    17:00 +15°C° 0 mm 2 mps 747 mmHg 80%
    18:00 +15°C° 0 mm 2 mps 746 mmHg 83%
    19:00 +14°C° 0 mm 2 mps 746 mmHg 85%
    20:00 +13°C° 0 mm 2 mps 746 mmHg 87%
    21:00 +13°C° 0 mm 2 mps 746 mmHg 88%
    22:00 +13°C° 0 mm 2 mps 746 mmHg 89%
    23:00 +12°C° 0 mm 3 mps 746 mmHg 90%

    Tomorrow, 19 October, Friday

    Time Temperature Precipitation Wind Pressure Humidity
    00:00 +12°C° 0 mm 2 mps 745 mmHg 90%
    01:00 +12°C° 0 mm 2 mps 745 mmHg 91%
    02:00 +12°C° 0 mm 2 mps 745 mmHg 91%
    03:00 +10°C° 0 mm 2 mps 745 mmHg 91%
    04:00 +10°C° 0 mm 2 mps 745 mmHg 92%
    05:00 +10°C° 0 mm 2 mps 744 mmHg 92%
    06:00 +10°C° 0 mm 2 mps 744 mmHg 92%
    07:00 +10°C° 0 mm 2 mps 744 mmHg 91%
    08:00 +10°C° 0 mm 2 mps 745 mmHg 91%
    09:00 +13°C° 0 mm 2 mps 745 mmHg 85%
    10:00 +14°C° 0 mm 2 mps 745 mmHg 79%
    11:00 +16°C° 0 mm 2 mps 745 mmHg 74%
    12:00 +16°C° 0 mm 2 mps 745 mmHg 73%
    13:00 +16°C° 0 mm 2 mps 745 mmHg 71%
    14:00 +17°C° 0 mm 3 mps 744 mmHg 70%
    15:00 +15°C° 0 mm 2 mps 745 mmHg 75%
    16:00 +14°C° 0 mm 2 mps 745 mmHg 80%
    17:00 +13°C° 0 mm 2 mps 745 mmHg 86%
    18:00 +11°C° 0 mm 3 mps 745 mmHg 87%
    19:00 +11°C° 0 mm 3 mps 745 mmHg 88%
    20:00 +10°C° 0 mm 3 mps 746 mmHg 89%
    21:00 +9°C° 0 mm 3 mps 746 mmHg 90%
    22:00 +8°C° 0 mm 3 mps 746 mmHg 91%
    23:00 +8°C° 0 mm 2 mps 746 mmHg 92%

    Day after tomorrow, 20 October, Saturday

    Time Temperature Precipitation Wind Pressure Humidity
    00:00 +7°C° 0 mm 2 mps 747 mmHg 92%
    01:00 +6°C° 0 mm 2 mps 747 mmHg 92%
    02:00 +6°C° 0 mm 2 mps 747 mmHg 92%
    03:00 +5°C° 0 mm 2 mps 747 mmHg 92%
    04:00 +5°C° 0 mm 2 mps 747 mmHg 92%
    05:00 +4°C° 0 mm 2 mps 747 mmHg 92%
    06:00 +5°C° 0 mm 2 mps 747 mmHg 90%
    07:00 +5°C° 0 mm 2 mps 748 mmHg 88%
    08:00 +6°C° 0 mm 1 mps 748 mmHg 86%
    09:00 +8°C° 0 mm 1 mps 748 mmHg 78%
    10:00 +8°C° 0 mm 2 mps 748 mmHg 71%
    11:00 +9°C° 0 mm 2 mps 748 mmHg 64%
    12:00 +10°C° 0 mm 2 mps 748 mmHg 61%
    13:00 +10°C° 0 mm 2 mps 748 mmHg 58%
    14:00 +12°C° 0 mm 2 mps 747 mmHg 55%
    15:00 +10°C° 0 mm 1 mps 747 mmHg 60%
    16:00 +9°C° 0 mm 1 mps 747 mmHg 65%
    17:00 +8°C° 0 mm 1 mps 747 mmHg 70%
    18:00 +8°C° 0 mm 1 mps 747 mmHg 71%
    19:00 +8°C° 0 mm 1 mps 747 mmHg 72%
    20:00 +7°C° 0 mm 0 mps 747 mmHg 73%
    21:00 +7°C° 0 mm 0 mps 747 mmHg 73%
    22:00 +7°C° 0 mm 0 mps 746 mmHg 73%
    23:00 +7°C° 0 mm 0 mps 746 mmHg 74%

    21 October, Sunday

    Time Temperature Precipitation Wind Pressure Humidity
    00:00 +7°C° 0 mm 0 mps 746 mmHg 74%
    01:00 +6°C° 0 mm 0 mps 746 mmHg 75%
    02:00 +6°C° 0 mm 0 mps 745 mmHg 76%
    03:00 +6°C° 0 mm 0 mps 745 mmHg 77%
    04:00 +7°C° 0 mm 1 mps 745 mmHg 78%
    05:00 +7°C° 0 mm 1 mps 745 mmHg 78%
    06:00 +7°C° 0 mm 1 mps 745 mmHg 78%
    07:00 +7°C° 0 mm 1 mps 745 mmHg 78%
    08:00 +7°C° 0 mm 1 mps 745 mmHg 77%
    09:00 +7°C° 0 mm 2 mps 745 mmHg 73%
    10:00 +8°C° 0 mm 2 mps 746 mmHg 69%
    11:00 +9°C° 0 mm 2 mps 746 mmHg 64%
    12:00 +9°C° 0 mm 3 mps 746 mmHg 62%
    13:00 +10°C° 0 mm 3 mps 746 mmHg 60%
    14:00 +10°C° 0 mm 3 mps 746 mmHg 58%
    15:00 +9°C° 0 mm 3 mps 747 mmHg 63%
    16:00 +8°C° 0 mm 2 mps 747 mmHg 69%
    17:00 +7°C° 0 mm 2 mps 747 mmHg 74%
    18:00 +6°C° 0 mm 2 mps 747 mmHg 76%
    19:00 +6°C° 0 mm 2 mps 748 mmHg 79%
    20:00 +5°C° 0 mm 2 mps 748 mmHg 82%
    21:00 +5°C° 0 mm 2 mps 748 mmHg 84%
    22:00 +5°C° 0 mm 1 mps 749 mmHg 86%
    23:00 +5°C° 0 mm 1 mps 749 mmHg 88%

    22 October, Monday

    Time Temperature Precipitation Wind Pressure Humidity
    00:00 +5°C° 0 mm 1 mps 749 mmHg 89%
    01:00 +4°C° 0 mm 1 mps 749 mmHg 90%
    02:00 +4°C° 0 mm 1 mps 749 mmHg 90%
    03:00 +4°C° 0 mm 1 mps 749 mmHg 90%
    04:00 +4°C° 0 mm 1 mps 748 mmHg 91%
    05:00 +4°C° 0 mm 1 mps 748 mmHg 91%
    06:00 +4°C° 0 mm 1 mps 748 mmHg 89%
    07:00 +4°C° 0 mm 1 mps 748 mmHg 88%
    08:00 +5°C° 0 mm 1 mps 748 mmHg 87%
    09:00 +5°C° 0 mm 2 mps 748 mmHg 80%
    10:00 +7°C° 0 mm 3 mps 748 mmHg 73%
    11:00 +8°C° 0 mm 3 mps 748 mmHg 67%
    12:00 +8°C° 0 mm 4 mps 747 mmHg 64%
    13:00 +8°C° 0 mm 4 mps 747 mmHg 61%
    14:00 +10°C° 0 mm 4 mps 746 mmHg 59%
    15:00 +8°C° 0 mm 4 mps 746 mmHg 63%
    16:00 +7°C° 0 mm 4 mps 745 mmHg 67%
    17:00 +5°C° 0 mm 3 mps 745 mmHg 72%
    18:00 +5°C° 0 mm 3 mps 745 mmHg 74%
    19:00 +5°C° 0 mm 4 mps 744 mmHg 76%
    20:00 +4°C° 0 mm 4 mps 744 mmHg 79%
    21:00 +4°C° 0.4 mm 3 mps 744 mmHg 82%
    22:00 +4°C° 0.4 mm 3 mps 744 mmHg 84%
    23:00 +4°C° 0.4 mm 3 mps 743 mmHg 87%

    23 October, Tuesday

    Time Temperature Precipitation Wind Pressure Humidity
    00:00 +4°C° 0.5 mm 3 mps 743 mmHg 89%
    01:00 +5°C° 0.5 mm 2 mps 743 mmHg 91%
    02:00 +5°C° 0.5 mm 2 mps 742 mmHg 93%
    03:00 +5°C° 0.3 mm 2 mps 742 mmHg 93%
    04:00 +5°C° 0.3 mm 2 mps 742 mmHg 94%
    05:00 +5°C° 0.3 mm 2 mps 741 mmHg 94%
    06:00 +5°C° 0.3 mm 2 mps 741 mmHg 94%
    07:00 +5°C° 0.3 mm 2 mps 741 mmHg 93%
    08:00 +5°C° 0.3 mm 2 mps 741 mmHg 93%
    09:00 +6°C° 0.3 mm 1 mps 741 mmHg 90%
    10:00 +7°C° 0.3 mm 1 mps 740 mmHg 87%
    11:00 +7°C° 0.3 mm 1 mps 740 mmHg 85%
    12:00 +7°C° 0.2 mm 1 mps 740 mmHg 84%
    13:00 +7°C° 0.2 mm 1 mps 740 mmHg 82%
    14:00 +8°C° 0.2 mm 1 mps 739 mmHg 81%
    15:00 +7°C° 0.1 mm 1 mps 739 mmHg 83%
    16:00 +7°C° 0.1 mm 1 mps 739 mmHg 84%
    17:00 +6°C° 0.1 mm 1 mps 739 mmHg 86%
    18:00 +6°C° 0.1 mm 1 mps 738 mmHg 86%
    19:00 +6°C° 0.1 mm 1 mps 738 mmHg 87%
    20:00 +6°C° 0.1 mm 1 mps 738 mmHg 88%
    21:00 +5°C° 0.1 mm 1 mps 738 mmHg 88%
    22:00 +5°C° 0.1 mm 1 mps 738 mmHg 88%
    23:00 +5°C° 0.1 mm 1 mps 738 mmHg 89%
    Show more